APRIZESAT 6

Last updated on Tue Sep 22 2026 00:03:51 GMT+0000 (Coordinated Universal Time)

1 37793U 11044F 26264.56228100 .00000327 00000+0 53455-4 0 9990 2 37793 98.2283 176.9944 0043888 136.1599 349.2822 14.77027416811377
UTC large
Height (km)
Speed (km/s)
/
Latitude / Longitude
Inclination (degrees)
Orbital Period (minutes)
Azimuth
Elevation
Range (km)
Doppler Factor

Next 0 passes for location: London (51.5072 / 0.1276)

No passes found over London.
APRIZESAT 6